Time,TemperatureF,DewpointF,PressureIn,WindDirection,WindDirectionDegrees,WindSpeedMPH,WindSpeedGustMPH,Humidity,HourlyPrecipIn,Conditions,Clouds,dailyrainin,SoftwareType,DateUTC
2013-05-06 00:01:00,44.6,41.9,30.23,WSW,250,0.0,0.0,90,0.00,,,0.00,meteohub,2013-05-06 04:01:00,
2013-05-06 00:07:00,44.4,41.7,30.23,WSW,250,0.0,0.0,90,0.00,,,0.00,meteohub,2013-05-06 04:07:00,
2013-05-06 00:12:00,44.4,41.7,30.23,WSW,250,0.0,0.0,90,0.00,,,0.00,meteohub,2013-05-06 04:12:00,
2013-05-06 00:17:00,44.2,41.5,30.23,WSW,250,0.0,0.0,90,0.00,,,0.00,meteohub,2013-05-06 04:17:00,
2013-05-06 00:22:00,44.2,41.7,30.23,WSW,250,0.0,0.0,91,0.00,,,0.00,meteohub,2013-05-06 04:22:00,
2013-05-06 00:27:00,44.1,41.5,30.23,WSW,250,0.0,0.0,91,0.00,,,0.00,meteohub,2013-05-06 04:27:00,
2013-05-06 00:32:00,44.1,41.5,30.23,WSW,250,0.0,0.0,91,0.00,,,0.00,meteohub,2013-05-06 04:32:00,
2013-05-06 00:37:00,43.9,41.4,30.23,WSW,251,0.0,0.0,91,0.00,,,0.00,meteohub,2013-05-06 04:37:00,
2013-05-06 00:42:00,43.9,41.4,30.23,WSW,250,0.0,0.0,91,0.00,,,0.00,meteohub,2013-05-06 04:42:00,
2013-05-06 00:47:00,43.5,41.0,30.23,WSW,251,0.0,0.0,91,0.00,,,0.00,meteohub,2013-05-06 04:47:00,
2013-05-06 00:52:00,43.5,41.0,30.23,WSW,250,0.0,0.0,91,0.00,,,0.00,meteohub,2013-05-06 04:52:00,
2013-05-06 00:57:00,43.3,40.8,30.23,WSW,250,0.0,0.0,91,0.00,,,0.00,meteohub,2013-05-06 04:57:00,
2013-05-06 01:02:00,43.3,40.8,30.23,WSW,250,0.0,0.0,91,0.00,,,0.00,meteohub,2013-05-06 05:02:00,
2013-05-06 01:07:00,43.2,40.6,30.23,WSW,250,0.0,0.0,91,0.00,,,0.00,meteohub,2013-05-06 05:07:00,
2013-05-06 01:12:00,43.2,40.6,30.22,WSW,250,0.0,0.0,91,0.00,,,0.00,meteohub,2013-05-06 05:12:00,
2013-05-06 01:17:00,43.2,41.0,30.22,WSW,250,0.0,0.0,92,0.00,,,0.00,meteohub,2013-05-06 05:17:00,
2013-05-06 01:22:00,43.0,40.8,30.22,WSW,250,0.0,0.0,92,0.00,,,0.00,meteohub,2013-05-06 05:22:00,
2013-05-06 01:27:00,43.0,40.8,30.22,WSW,250,0.0,0.0,92,0.00,,,0.00,meteohub,2013-05-06 05:27:00,
2013-05-06 01:32:00,42.8,40.6,30.22,WSW,250,0.0,0.0,92,0.00,,,0.00,meteohub,2013-05-06 05:32:00,
2013-05-06 01:37:00,42.6,40.5,30.22,WSW,250,0.0,0.0,92,0.00,,,0.00,meteohub,2013-05-06 05:37:00,
2013-05-06 01:41:00,42.6,40.5,30.22,WSW,250,0.0,0.0,92,0.00,,,0.00,meteohub,2013-05-06 05:41:00,
2013-05-06 01:47:00,42.6,40.5,30.22,WSW,250,0.0,0.0,92,0.00,,,0.00,meteohub,2013-05-06 05:47:00,
2013-05-06 01:52:00,42.4,40.3,30.22,WSW,250,0.0,0.0,92,0.00,,,0.00,meteohub,2013-05-06 05:52:00,
2013-05-06 01:57:00,42.4,40.3,30.22,WSW,250,0.0,0.0,92,0.00,,,0.00,meteohub,2013-05-06 05:57:00,
2013-05-06 02:02:00,42.4,40.6,30.22,WSW,250,0.0,0.0,93,0.00,,,0.00,meteohub,2013-05-06 06:02:00,
2013-05-06 02:07:00,42.4,40.6,30.21,WSW,250,0.0,0.0,93,0.00,,,0.00,meteohub,2013-05-06 06:07:00,
2013-05-06 02:12:00,42.4,40.6,30.22,WSW,250,0.0,0.0,93,0.00,,,0.00,meteohub,2013-05-06 06:12:00,
2013-05-06 02:17:00,42.4,40.6,30.22,WSW,250,0.0,0.0,93,0.00,,,0.00,meteohub,2013-05-06 06:17:00,
2013-05-06 02:22:00,42.4,40.6,30.21,WSW,250,0.0,0.0,93,0.00,,,0.00,meteohub,2013-05-06 06:22:00,
2013-05-06 02:27:00,42.4,40.6,30.21,WSW,250,0.0,0.0,93,0.00,,,0.00,meteohub,2013-05-06 06:27:00,
2013-05-06 02:32:00,42.4,40.6,30.21,WSW,250,0.0,0.0,93,0.00,,,0.00,meteohub,2013-05-06 06:32:00,
2013-05-06 02:37:00,42.4,40.6,30.21,WSW,250,0.0,0.0,93,0.00,,,0.00,meteohub,2013-05-06 06:37:00,
2013-05-06 02:42:00,42.4,40.8,30.21,WSW,250,0.0,0.0,94,0.00,,,0.00,meteohub,2013-05-06 06:42:00,
2013-05-06 02:47:00,42.4,40.8,30.21,WSW,250,0.0,0.0,94,0.00,,,0.00,meteohub,2013-05-06 06:47:00,
2013-05-06 02:51:00,42.4,40.8,30.21,WSW,250,0.0,0.0,94,0.00,,,0.00,meteohub,2013-05-06 06:51:00,
2013-05-06 02:57:00,42.6,41.0,30.21,WSW,250,0.0,0.0,94,0.00,,,0.00,meteohub,2013-05-06 06:57:00,
2013-05-06 03:02:00,43.0,41.4,30.21,WSW,250,0.0,0.0,94,0.00,,,0.00,meteohub,2013-05-06 07:02:00,
2013-05-06 03:07:00,43.3,41.7,30.21,WSW,250,0.0,0.0,94,0.00,,,0.00,meteohub,2013-05-06 07:07:00,
2013-05-06 03:12:00,43.5,42.3,30.21,WSW,250,0.0,0.0,95,0.00,,,0.00,meteohub,2013-05-06 07:12:00,
2013-05-06 03:17:00,43.9,42.6,30.21,WSW,250,0.0,0.0,95,0.00,,,0.00,meteohub,2013-05-06 07:17:00,
2013-05-06 03:22:00,44.1,42.8,30.20,WSW,250,0.0,0.0,95,0.00,,,0.00,meteohub,2013-05-06 07:22:00,
2013-05-06 03:27:00,44.4,43.2,30.20,WSW,250,0.0,0.0,95,0.00,,,0.00,meteohub,2013-05-06 07:27:00,
2013-05-06 03:32:00,44.6,43.3,30.20,WSW,250,0.0,0.0,95,0.00,,,0.00,meteohub,2013-05-06 07:32:00,
2013-05-06 03:37:00,44.8,43.5,30.21,WSW,250,0.0,0.0,95,0.00,,,0.00,meteohub,2013-05-06 07:37:00,
2013-05-06 03:42:00,45.0,43.7,30.21,WSW,250,0.0,0.0,95,0.00,,,0.00,meteohub,2013-05-06 07:42:00,
2013-05-06 03:47:00,45.1,43.9,30.21,WSW,250,0.0,0.0,95,0.00,,,0.00,meteohub,2013-05-06 07:47:00,
2013-05-06 03:52:00,45.3,44.1,30.21,WSW,250,0.0,0.0,95,0.00,,,0.00,meteohub,2013-05-06 07:52:00,
2013-05-06 03:57:00,45.3,44.1,30.21,WSW,250,0.0,0.0,95,0.00,,,0.00,meteohub,2013-05-06 07:57:00,
2013-05-06 04:02:00,45.5,44.2,30.21,NE,43,0.0,0.0,95,0.00,,,0.00,meteohub,2013-05-06 08:02:00,
2013-05-06 04:07:00,45.7,44.1,30.21,NE,43,0.0,1.0,94,0.00,,,0.00,meteohub,2013-05-06 08:07:00,
2013-05-06 04:12:00,45.7,44.1,30.21,East,85,0.0,1.0,94,0.00,,,0.00,meteohub,2013-05-06 08:12:00,
2013-05-06 04:17:00,45.9,44.2,30.21,East,85,0.0,1.0,94,0.00,,,0.00,meteohub,2013-05-06 08:17:00,
2013-05-06 04:22:00,45.9,44.2,30.21,East,85,0.0,1.0,94,0.00,,,0.00,meteohub,2013-05-06 08:22:00,
2013-05-06 04:27:00,46.0,44.4,30.22,East,85,0.0,1.0,94,0.00,,,0.00,meteohub,2013-05-06 08:27:00,
2013-05-06 04:32:00,46.0,44.4,30.22,East,84,0.0,1.0,94,0.00,,,0.00,meteohub,2013-05-06 08:32:00,
2013-05-06 04:37:00,46.0,44.4,30.22,ENE,72,0.0,0.0,94,0.00,,,0.00,meteohub,2013-05-06 08:37:00,
2013-05-06 04:42:00,46.2,44.6,30.21,East,98,0.0,1.0,94,0.00,,,0.00,meteohub,2013-05-06 08:42:00,
2013-05-06 04:47:00,46.2,44.6,30.21,East,98,0.0,1.0,94,0.00,,,0.00,meteohub,2013-05-06 08:47:00,
2013-05-06 04:52:00,46.2,44.2,30.22,East,91,0.0,1.0,93,0.00,,,0.00,meteohub,2013-05-06 08:52:00,
2013-05-06 04:57:00,46.4,44.4,30.22,East,91,0.0,1.0,93,0.00,,,0.00,meteohub,2013-05-06 08:57:00,
2013-05-06 05:02:00,46.6,44.6,30.22,East,91,0.0,1.0,93,0.00,,,0.00,meteohub,2013-05-06 09:02:00,
2013-05-06 05:07:00,46.6,44.6,30.22,East,91,0.0,0.0,93,0.00,,,0.00,meteohub,2013-05-06 09:07:00,
2013-05-06 05:12:00,46.6,44.6,30.22,East,91,0.0,0.0,93,0.00,,,0.00,meteohub,2013-05-06 09:12:00,
2013-05-06 05:17:00,46.6,44.6,30.22,East,89,0.0,0.0,93,0.00,,,0.00,meteohub,2013-05-06 09:17:00,
2013-05-06 05:22:00,46.6,44.6,30.22,East,89,0.0,0.0,93,0.00,,,0.00,meteohub,2013-05-06 09:22:00,
2013-05-06 05:27:00,46.8,44.8,30.22,East,89,0.0,0.0,93,0.00,,,0.00,meteohub,2013-05-06 09:27:00,
2013-05-06 05:31:00,46.8,44.8,30.22,East,89,0.0,0.0,93,0.00,,,0.00,meteohub,2013-05-06 09:31:00,
2013-05-06 05:36:00,46.8,44.8,30.22,East,89,0.0,0.0,93,0.00,,,0.00,meteohub,2013-05-06 09:36:00,
2013-05-06 05:41:00,46.8,44.6,30.22,East,89,0.0,0.0,92,0.00,,,0.00,meteohub,2013-05-06 09:41:00,
2013-05-06 05:47:00,46.9,44.8,30.22,East,89,0.0,0.0,92,0.00,,,0.00,meteohub,2013-05-06 09:47:00,
2013-05-06 05:52:00,46.9,44.8,30.22,East,89,0.0,0.0,92,0.00,,,0.00,meteohub,2013-05-06 09:52:00,
2013-05-06 05:57:00,46.9,44.8,30.22,SE,131,0.0,0.0,92,0.00,,,0.00,meteohub,2013-05-06 09:57:00,
2013-05-06 06:02:00,46.9,44.8,30.22,ESE,117,0.0,0.0,92,0.00,,,0.00,meteohub,2013-05-06 10:02:00,
2013-05-06 06:07:00,46.9,44.8,30.22,ESE,111,0.0,0.0,92,0.00,,,0.00,meteohub,2013-05-06 10:07:00,
2013-05-06 06:12:00,46.9,44.8,30.22,East,92,0.0,2.0,92,0.00,,,0.00,meteohub,2013-05-06 10:12:00,
2013-05-06 06:17:00,47.1,45.0,30.22,East,91,0.0,2.0,92,0.00,,,0.00,meteohub,2013-05-06 10:17:00,
2013-05-06 06:22:00,47.1,45.0,30.23,ENE,70,1.0,2.0,92,0.00,,,0.00,meteohub,2013-05-06 10:22:00,
2013-05-06 06:27:00,47.1,45.0,30.23,ENE,71,0.0,2.0,92,0.00,,,0.00,meteohub,2013-05-06 10:27:00,
2013-05-06 06:32:00,47.1,45.0,30.23,ESE,105,0.0,2.0,92,0.00,,,0.00,meteohub,2013-05-06 10:32:00,
2013-05-06 06:37:00,47.3,45.1,30.23,East,90,0.0,2.0,92,0.00,,,0.00,meteohub,2013-05-06 10:37:00,
2013-05-06 06:42:00,47.1,45.0,30.24,East,83,0.0,2.0,92,0.00,,,0.00,meteohub,2013-05-06 10:42:00,
2013-05-06 06:47:00,47.3,45.1,30.24,East,83,0.0,2.0,92,0.00,,,0.00,meteohub,2013-05-06 10:47:00,
2013-05-06 06:52:00,47.5,45.3,30.24,West,271,0.0,2.0,92,0.00,,,0.00,meteohub,2013-05-06 10:52:00,
2013-05-06 06:57:00,47.5,45.3,30.25,West,260,0.0,0.0,92,0.00,,,0.00,meteohub,2013-05-06 10:57:00,
2013-05-06 07:02:00,47.5,45.3,30.25,NE,49,0.0,0.0,92,0.00,,,0.00,meteohub,2013-05-06 11:02:00,
2013-05-06 07:07:00,47.7,45.5,30.25,NE,49,0.0,0.0,92,0.00,,,0.00,meteohub,2013-05-06 11:07:00,
2013-05-06 07:12:00,47.7,45.1,30.25,NE,48,0.0,1.0,91,0.00,,,0.00,meteohub,2013-05-06 11:12:00,
2013-05-06 07:17:00,47.7,45.1,30.25,East,79,0.0,1.0,91,0.00,,,0.00,meteohub,2013-05-06 11:17:00,
2013-05-06 07:22:00,47.8,45.3,30.25,East,79,0.0,1.0,91,0.00,,,0.00,meteohub,2013-05-06 11:22:00,
2013-05-06 07:27:00,48.0,45.5,30.25,East,79,0.0,1.0,91,0.00,,,0.00,meteohub,2013-05-06 11:27:00,
2013-05-06 07:32:00,48.0,45.5,30.25,NW,324,0.0,1.0,91,0.00,,,0.00,meteohub,2013-05-06 11:32:00,
2013-05-06 07:37:00,48.2,45.7,30.25,NW,325,0.0,1.0,91,0.00,,,0.00,meteohub,2013-05-06 11:37:00,
2013-05-06 07:42:00,48.4,45.9,30.25,West,262,0.0,1.0,91,0.00,,,0.00,meteohub,2013-05-06 11:42:00,
2013-05-06 07:47:00,48.6,46.0,30.25,WSW,239,0.0,1.0,91,0.00,,,0.00,meteohub,2013-05-06 11:47:00,
2013-05-06 07:52:00,48.6,45.7,30.25,East,101,0.0,1.0,90,0.00,,,0.00,meteohub,2013-05-06 11:52:00,
2013-05-06 07:57:00,48.7,45.9,30.25,NE,54,0.0,1.0,90,0.00,,,0.00,meteohub,2013-05-06 11:57:00,
2013-05-06 08:02:00,48.9,46.0,30.25,ENE,64,0.0,1.0,90,0.00,,,0.00,meteohub,2013-05-06 12:02:00,
2013-05-06 08:07:00,48.9,46.0,30.25,East,97,2.0,3.0,90,0.00,,,0.00,meteohub,2013-05-06 12:07:00,
2013-05-06 08:12:00,48.9,46.0,30.25,East,98,0.0,3.0,90,0.00,,,0.00,meteohub,2013-05-06 12:12:00,
2013-05-06 08:17:00,49.3,46.4,30.25,East,97,0.0,3.0,90,0.00,,,0.00,meteohub,2013-05-06 12:17:00,
2013-05-06 08:22:00,49.6,46.6,30.25,East,96,0.0,3.0,89,0.00,,,0.00,meteohub,2013-05-06 12:22:00,
2013-05-06 08:27:00,49.8,46.4,30.25,West,271,0.0,2.0,88,0.00,,,0.00,meteohub,2013-05-06 12:27:00,
2013-05-06 08:32:00,50.2,46.8,30.26,East,98,0.0,2.0,88,0.00,,,0.00,meteohub,2013-05-06 12:32:00,
2013-05-06 08:37:00,50.2,46.8,30.26,East,82,0.0,2.0,88,0.00,,,0.00,meteohub,2013-05-06 12:37:00,
2013-05-06 08:42:00,50.4,46.6,30.26,East,91,1.0,2.0,87,0.00,,,0.00,meteohub,2013-05-06 12:42:00,
2013-05-06 08:47:00,50.4,46.6,30.26,East,89,1.0,2.0,87,0.00,,,0.00,meteohub,2013-05-06 12:47:00,
2013-05-06 08:52:00,50.7,46.9,30.25,East,87,2.0,2.0,87,0.00,,,0.00,meteohub,2013-05-06 12:52:00,
2013-05-06 08:57:00,51.1,47.3,30.26,East,82,0.0,4.0,87,0.00,,,0.00,meteohub,2013-05-06 12:57:00,
2013-05-06 09:02:00,51.4,47.5,30.26,ESE,111,0.0,4.0,86,0.00,,,0.00,meteohub,2013-05-06 13:02:00,
2013-05-06 09:07:00,51.6,47.3,30.26,SW,231,0.0,4.0,85,0.00,,,0.00,meteohub,2013-05-06 13:07:00,
2013-05-06 09:12:00,51.6,47.3,30.26,West,259,1.0,2.0,85,0.00,,,0.00,meteohub,2013-05-06 13:12:00,
2013-05-06 09:17:00,51.8,47.5,30.26,WSW,255,3.0,3.0,85,0.00,,,0.00,meteohub,2013-05-06 13:17:00,
2013-05-06 09:22:00,52.0,47.3,30.26,West,270,0.0,3.0,84,0.00,,,0.00,meteohub,2013-05-06 13:22:00,
2013-05-06 09:27:00,52.2,47.5,30.26,West,278,2.0,3.0,84,0.00,,,0.00,meteohub,2013-05-06 13:27:00,
2013-05-06 09:32:00,52.3,47.7,30.26,West,269,0.0,3.0,84,0.00,,,0.00,meteohub,2013-05-06 13:32:00,
2013-05-06 09:37:00,52.7,48.0,30.26,East,89,1.0,4.0,84,0.00,,,0.00,meteohub,2013-05-06 13:37:00,
2013-05-06 09:42:00,52.5,47.1,30.27,East,95,1.0,4.0,82,0.00,,,0.00,meteohub,2013-05-06 13:42:00,
2013-05-06 09:46:00,52.5,47.1,30.27,WNW,293,1.0,4.0,82,0.00,,,0.00,meteohub,2013-05-06 13:46:00,
2013-05-06 09:51:00,52.5,47.1,30.26,WSW,255,0.0,4.0,82,0.00,,,0.00,meteohub,2013-05-06 13:51:00,
2013-05-06 09:57:00,53.1,47.7,30.27,NNW,333,0.0,4.0,82,0.00,,,0.00,meteohub,2013-05-06 13:57:00,
2013-05-06 10:02:00,53.4,47.7,30.26,North,359,1.0,2.0,81,0.00,,,0.00,meteohub,2013-05-06 14:02:00,
2013-05-06 10:07:00,54.0,48.0,30.27,ENE,73,0.0,4.0,80,0.00,,,0.00,meteohub,2013-05-06 14:07:00,
2013-05-06 10:12:00,54.3,48.0,30.27,SW,232,1.0,4.0,79,0.00,,,0.00,meteohub,2013-05-06 14:12:00,
2013-05-06 10:17:00,54.3,47.7,30.26,NNE,25,1.0,4.0,78,0.00,,,0.00,meteohub,2013-05-06 14:17:00,
2013-05-06 10:22:00,54.1,47.1,30.26,NW,325,0.0,5.0,77,0.00,,,0.00,meteohub,2013-05-06 14:22:00,
2013-05-06 10:27:00,54.1,48.0,30.26,West,267,3.0,5.0,80,0.00,,,0.00,meteohub,2013-05-06 14:27:00,
2013-05-06 10:32:00,54.1,47.8,30.26,ENE,64,0.0,3.0,79,0.00,,,0.00,meteohub,2013-05-06 14:32:00,
2013-05-06 10:37:00,54.7,48.4,30.25,East,80,2.0,3.0,79,0.00,,,0.00,meteohub,2013-05-06 14:37:00,
2013-05-06 10:42:00,55.0,48.6,30.25,WSW,245,1.0,3.0,79,0.00,,,0.00,meteohub,2013-05-06 14:42:00,
2013-05-06 10:47:00,55.6,48.9,30.25,ENE,59,4.0,4.0,78,0.00,,,0.00,meteohub,2013-05-06 14:47:00,
2013-05-06 10:52:00,55.8,48.4,30.25,East,91,1.0,5.0,76,0.00,,,0.00,meteohub,2013-05-06 14:52:00,
2013-05-06 10:57:00,56.3,48.9,30.25,West,263,1.0,5.0,76,0.00,,,0.00,meteohub,2013-05-06 14:57:00,
2013-05-06 11:02:00,56.7,49.1,30.25,West,277,1.0,5.0,76,0.00,,,0.00,meteohub,2013-05-06 15:02:00,
2013-05-06 11:07:00,57.0,48.4,30.25,West,278,2.0,3.0,73,0.00,,,0.00,meteohub,2013-05-06 15:07:00,
2013-05-06 11:12:00,57.0,48.4,30.25,ENE,78,0.0,6.0,73,0.00,,,0.00,meteohub,2013-05-06 15:12:00,
2013-05-06 11:17:00,57.2,48.6,30.25,NNE,12,0.0,6.0,73,0.00,,,0.00,meteohub,2013-05-06 15:17:00,
2013-05-06 11:22:00,57.6,48.9,30.25,ENE,71,3.0,6.0,73,0.00,,,0.00,meteohub,2013-05-06 15:22:00,
2013-05-06 11:26:00,57.7,49.5,30.25,WSW,248,1.0,6.0,74,0.00,,,0.00,meteohub,2013-05-06 15:26:00,
2013-05-06 11:31:00,57.9,48.9,30.25,East,84,1.0,3.0,72,0.00,,,0.00,meteohub,2013-05-06 15:31:00,
2013-05-06 11:36:00,58.6,50.0,30.25,ENE,68,0.0,5.0,73,0.00,,,0.00,meteohub,2013-05-06 15:36:00,
2013-05-06 11:41:00,58.6,49.3,30.25,West,273,1.0,5.0,71,0.00,,,0.00,meteohub,2013-05-06 15:41:00,
2013-05-06 11:46:00,59.2,50.2,30.25,West,259,2.0,5.0,72,0.00,,,0.00,meteohub,2013-05-06 15:46:00,
2013-05-06 11:52:00,59.2,49.5,30.25,North,4,1.0,4.0,70,0.00,,,0.00,meteohub,2013-05-06 15:52:00,
2013-05-06 11:56:00,59.2,49.5,30.24,WNW,287,0.0,4.0,70,0.00,,,0.00,meteohub,2013-05-06 15:56:00,
2013-05-06 12:02:00,58.5,49.1,30.24,NNW,334,1.0,6.0,71,0.00,,,0.00,meteohub,2013-05-06 16:02:00,
2013-05-06 12:07:00,59.2,50.9,30.24,East,79,3.0,6.0,74,0.00,,,0.00,meteohub,2013-05-06 16:07:00,
2013-05-06 12:12:00,59.5,49.8,30.23,ENE,73,2.0,6.0,70,0.00,,,0.00,meteohub,2013-05-06 16:12:00,
2013-05-06 12:17:00,60.3,50.9,30.23,WSW,249,1.0,4.0,71,0.00,,,0.00,meteohub,2013-05-06 16:17:00,
2013-05-06 12:22:00,61.2,51.3,30.23,ENE,78,2.0,4.0,70,0.00,,,0.00,meteohub,2013-05-06 16:22:00,
2013-05-06 12:27:00,61.5,50.9,30.23,West,262,0.0,4.0,68,0.00,,,0.00,meteohub,2013-05-06 16:27:00,
2013-05-06 12:32:00,61.9,51.3,30.22,West,268,0.0,3.0,68,0.00,,,0.00,meteohub,2013-05-06 16:32:00,
2013-05-06 12:37:00,62.6,51.4,30.22,West,269,0.0,3.0,67,0.00,,,0.00,meteohub,2013-05-06 16:37:00,
2013-05-06 12:42:00,62.6,51.1,30.22,WSW,257,2.0,3.0,66,0.00,,,0.00,meteohub,2013-05-06 16:42:00,
2013-05-06 12:47:00,62.2,52.3,30.22,West,274,2.0,4.0,70,0.00,,,0.00,meteohub,2013-05-06 16:47:00,
2013-05-06 12:52:00,63.0,52.2,30.22,West,260,0.0,7.0,68,0.00,,,0.00,meteohub,2013-05-06 16:52:00,
2013-05-06 12:57:00,63.5,52.0,30.21,ENE,77,1.0,7.0,66,0.00,,,0.00,meteohub,2013-05-06 16:57:00,
2013-05-06 13:02:00,64.2,52.2,30.21,East,88,0.0,3.0,65,0.00,,,0.00,meteohub,2013-05-06 17:02:00,
2013-05-06 13:07:00,64.9,52.9,30.21,ESE,110,0.0,3.0,65,0.00,,,0.00,meteohub,2013-05-06 17:07:00,
2013-05-06 13:12:00,65.5,52.5,30.21,West,260,0.0,3.0,63,0.00,,,0.00,meteohub,2013-05-06 17:12:00,
2013-05-06 13:17:00,65.8,53.8,30.21,ENE,78,0.0,3.0,65,0.00,,,0.00,meteohub,2013-05-06 17:17:00,
2013-05-06 13:22:00,65.5,52.5,30.21,North,359,0.0,3.0,63,0.00,,,0.00,meteohub,2013-05-06 17:22:00,
2013-05-06 13:27:00,65.3,51.4,30.21,West,262,3.0,7.0,61,0.00,,,0.00,meteohub,2013-05-06 17:27:00,
2013-05-06 13:32:00,64.9,52.9,30.20,West,260,1.0,7.0,65,0.00,,,0.00,meteohub,2013-05-06 17:32:00,
2013-05-06 13:37:00,65.5,53.1,30.20,NE,48,2.0,7.0,64,0.00,,,0.00,meteohub,2013-05-06 17:37:00,
2013-05-06 13:42:00,66.0,53.1,30.20,West,268,2.0,7.0,63,0.00,,,0.00,meteohub,2013-05-06 17:42:00,
2013-05-06 13:47:00,66.4,54.3,30.20,SW,214,0.0,6.0,65,0.00,,,0.00,meteohub,2013-05-06 17:47:00,
2013-05-06 13:52:00,66.9,53.1,30.20,ENE,72,0.0,6.0,61,0.00,,,0.00,meteohub,2013-05-06 17:52:00,
2013-05-06 13:56:00,67.1,53.2,30.19,West,263,1.0,6.0,61,0.00,,,0.00,meteohub,2013-05-06 17:56:00,
2013-05-06 14:01:00,67.1,54.5,30.19,SE,136,1.0,4.0,64,0.00,,,0.00,meteohub,2013-05-06 18:01:00,
2013-05-06 14:07:00,67.6,53.8,30.19,East,90,1.0,4.0,61,0.00,,,0.00,meteohub,2013-05-06 18:07:00,
2013-05-06 14:12:00,68.0,53.6,30.19,WSW,248,3.0,4.0,60,0.00,,,0.00,meteohub,2013-05-06 18:12:00,
2013-05-06 14:17:00,67.1,53.2,30.19,NE,51,0.0,4.0,61,0.00,,,0.00,meteohub,2013-05-06 18:17:00,
2013-05-06 14:22:00,67.3,54.3,30.19,West,269,3.0,5.0,63,0.00,,,0.00,meteohub,2013-05-06 18:22:00,
2013-05-06 14:27:00,67.6,53.8,30.19,WSW,239,1.0,5.0,61,0.00,,,0.00,meteohub,2013-05-06 18:27:00,
2013-05-06 14:32:00,68.0,52.7,30.18,ENE,72,3.0,4.0,58,0.00,,,0.00,meteohub,2013-05-06 18:32:00,
2013-05-06 14:37:00,67.6,52.9,30.18,ENE,68,0.0,6.0,59,0.00,,,0.00,meteohub,2013-05-06 18:37:00,
2013-05-06 14:42:00,67.5,54.0,30.18,East,84,1.0,6.0,62,0.00,,,0.00,meteohub,2013-05-06 18:42:00,
2013-05-06 14:46:00,67.1,52.7,30.18,East,79,5.0,6.0,60,0.00,,,0.00,meteohub,2013-05-06 18:46:00,
2013-05-06 14:51:00,67.1,53.2,30.18,WNW,291,1.0,5.0,61,0.00,,,0.00,meteohub,2013-05-06 18:51:00,
2013-05-06 14:56:00,66.9,53.1,30.17,WSW,245,3.0,5.0,61,0.00,,,0.00,meteohub,2013-05-06 18:56:00,
2013-05-06 15:01:00,67.1,53.6,30.17,WSW,251,1.0,5.0,62,0.00,,,0.00,meteohub,2013-05-06 19:01:00,
2013-05-06 15:06:00,67.3,53.8,30.17,WSW,256,3.0,4.0,62,0.00,,,0.00,meteohub,2013-05-06 19:06:00,
2013-05-06 15:11:00,67.3,53.4,30.17,West,273,2.0,4.0,61,0.00,,,0.00,meteohub,2013-05-06 19:11:00,
2013-05-06 15:16:00,67.1,53.2,30.17,WSW,243,1.0,4.0,61,0.00,,,0.00,meteohub,2013-05-06 19:16:00,
2013-05-06 15:21:00,67.3,52.9,30.17,West,271,0.0,4.0,60,0.00,,,0.00,meteohub,2013-05-06 19:21:00,
2013-05-06 15:26:00,67.3,53.8,30.17,ENE,63,0.0,5.0,62,0.00,,,0.00,meteohub,2013-05-06 19:26:00,
2013-05-06 15:31:00,67.3,52.9,30.17,West,274,1.0,5.0,60,0.00,,,0.00,meteohub,2013-05-06 19:31:00,
2013-05-06 15:36:00,66.9,53.1,30.16,ENE,74,1.0,4.0,61,0.00,,,0.00,meteohub,2013-05-06 19:36:00,
2013-05-06 15:41:00,67.3,52.9,30.16,West,260,3.0,5.0,60,0.00,,,0.00,meteohub,2013-05-06 19:41:00,
2013-05-06 15:46:00,67.1,52.7,30.16,West,262,3.0,5.0,60,0.00,,,0.00,meteohub,2013-05-06 19:46:00,
2013-05-06 15:51:00,66.7,52.9,30.16,NW,307,1.0,5.0,61,0.00,,,0.00,meteohub,2013-05-06 19:51:00,
2013-05-06 15:56:00,67.1,53.6,30.16,West,259,0.0,5.0,62,0.00,,,0.00,meteohub,2013-05-06 19:56:00,
2013-05-06 16:02:00,66.9,52.5,30.15,ENE,75,0.0,3.0,60,0.00,,,0.00,meteohub,2013-05-06 20:02:00,
2013-05-06 16:07:00,66.7,52.9,30.15,East,81,0.0,3.0,61,0.00,,,0.00,meteohub,2013-05-06 20:07:00,
2013-05-06 16:12:00,66.2,52.3,30.15,NW,314,0.0,4.0,61,0.00,,,0.00,meteohub,2013-05-06 20:12:00,
2013-05-06 16:16:00,65.8,52.5,30.15,East,92,0.0,4.0,62,0.00,,,0.00,meteohub,2013-05-06 20:16:00,
2013-05-06 16:21:00,65.7,52.3,30.15,ENE,72,0.0,4.0,62,0.00,,,0.00,meteohub,2013-05-06 20:21:00,
2013-05-06 16:26:00,65.5,52.5,30.15,West,276,0.0,4.0,63,0.00,,,0.00,meteohub,2013-05-06 20:26:00,
2013-05-06 16:31:00,65.3,52.0,30.14,ESE,110,0.0,3.0,62,0.00,,,0.00,meteohub,2013-05-06 20:31:00,
2013-05-06 16:36:00,65.1,51.8,30.14,WSW,257,1.0,3.0,62,0.00,,,0.00,meteohub,2013-05-06 20:36:00,
2013-05-06 16:42:00,65.1,52.2,30.14,West,261,2.0,3.0,63,0.00,,,0.00,meteohub,2013-05-06 20:42:00,
2013-05-06 16:47:00,64.9,51.6,30.14,WNW,284,1.0,4.0,62,0.00,,,0.00,meteohub,2013-05-06 20:47:00,
2013-05-06 16:52:00,64.6,51.6,30.14,West,278,0.0,4.0,63,0.00,,,0.00,meteohub,2013-05-06 20:52:00,
2013-05-06 16:57:00,64.2,51.8,30.14,ENE,75,1.0,4.0,64,0.00,,,0.00,meteohub,2013-05-06 20:57:00,
2013-05-06 17:02:00,64.0,51.3,30.14,West,279,1.0,3.0,63,0.00,,,0.00,meteohub,2013-05-06 21:02:00,
2013-05-06 17:07:00,63.9,51.4,30.14,WNW,288,1.0,2.0,64,0.00,,,0.00,meteohub,2013-05-06 21:07:00,
2013-05-06 17:12:00,63.7,51.6,30.14,West,260,0.0,3.0,65,0.00,,,0.00,meteohub,2013-05-06 21:12:00,
2013-05-06 17:17:00,63.5,51.1,30.14,WSW,249,1.0,3.0,64,0.00,,,0.00,meteohub,2013-05-06 21:17:00,
2013-05-06 17:22:00,63.3,51.4,30.14,East,94,1.0,3.0,65,0.00,,,0.00,meteohub,2013-05-06 21:22:00,
2013-05-06 17:27:00,63.1,51.3,30.15,East,91,2.0,3.0,65,0.00,,,0.00,meteohub,2013-05-06 21:27:00,
2013-05-06 17:32:00,63.0,51.1,30.14,ENE,73,2.0,3.0,65,0.00,,,0.00,meteohub,2013-05-06 21:32:00,
2013-05-06 17:36:00,62.8,50.4,30.14,ENE,62,0.0,3.0,64,0.00,,,0.00,meteohub,2013-05-06 21:36:00,
2013-05-06 17:42:00,62.4,50.9,30.15,East,92,1.0,3.0,66,0.00,,,0.00,meteohub,2013-05-06 21:42:00,
2013-05-06 17:47:00,62.2,50.4,30.15,East,89,1.0,3.0,65,0.00,,,0.00,meteohub,2013-05-06 21:47:00,
2013-05-06 17:52:00,62.1,50.5,30.15,East,82,0.0,4.0,66,0.00,,,0.00,meteohub,2013-05-06 21:52:00,
2013-05-06 17:57:00,61.9,50.4,30.15,West,263,0.0,4.0,66,0.00,,,0.00,meteohub,2013-05-06 21:57:00,
2013-05-06 18:02:00,61.5,50.0,30.15,ENE,71,0.0,4.0,66,0.00,,,0.00,meteohub,2013-05-06 22:02:00,
2013-05-06 18:06:00,61.3,50.4,30.15,NNE,32,0.0,3.0,67,0.00,,,0.00,meteohub,2013-05-06 22:06:00,
2013-05-06 18:11:00,61.2,50.5,30.15,NNE,28,0.0,2.0,68,0.00,,,0.00,meteohub,2013-05-06 22:11:00,
2013-05-06 18:17:00,61.3,50.4,30.15,West,261,0.0,2.0,67,0.00,,,0.00,meteohub,2013-05-06 22:17:00,
2013-05-06 18:21:00,61.2,50.2,30.15,West,266,0.0,3.0,67,0.00,,,0.00,meteohub,2013-05-06 22:21:00,
2013-05-06 18:26:00,61.0,50.4,30.15,West,269,0.0,3.0,68,0.00,,,0.00,meteohub,2013-05-06 22:26:00,
2013-05-06 18:31:00,61.0,50.4,30.14,West,269,0.0,3.0,68,0.00,,,0.00,meteohub,2013-05-06 22:31:00,
2013-05-06 18:36:00,60.8,50.2,30.14,ENE,68,0.0,4.0,68,0.00,,,0.00,meteohub,2013-05-06 22:36:00,
2013-05-06 18:42:00,60.6,50.4,30.14,East,93,0.0,4.0,69,0.00,,,0.00,meteohub,2013-05-06 22:42:00,
2013-05-06 18:47:00,60.6,50.4,30.14,ENE,77,2.0,4.0,69,0.00,,,0.00,meteohub,2013-05-06 22:47:00,
2013-05-06 18:52:00,60.3,50.0,30.14,ENE,75,0.0,2.0,69,0.00,,,0.00,meteohub,2013-05-06 22:52:00,
2013-05-06 18:56:00,60.1,50.2,30.14,West,265,0.0,2.0,70,0.00,,,0.00,meteohub,2013-05-06 22:56:00,
2013-05-06 19:01:00,59.9,50.2,30.14,West,266,0.0,2.0,70,0.00,,,0.00,meteohub,2013-05-06 23:01:00,
2013-05-06 19:06:00,59.7,50.4,30.14,West,273,0.0,2.0,71,0.00,,,0.00,meteohub,2013-05-06 23:06:00,
2013-05-06 19:11:00,59.7,50.4,30.14,West,262,0.0,2.0,71,0.00,,,0.00,meteohub,2013-05-06 23:11:00,
2013-05-06 19:16:00,59.7,50.4,30.15,West,263,0.0,1.0,71,0.00,,,0.00,meteohub,2013-05-06 23:16:00,
2013-05-06 19:21:00,59.7,50.4,30.15,West,263,0.0,1.0,71,0.00,,,0.00,meteohub,2013-05-06 23:21:00,
2013-05-06 19:26:00,59.5,50.2,30.15,ENE,72,0.0,1.0,71,0.00,,,0.00,meteohub,2013-05-06 23:26:00,
2013-05-06 19:31:00,59.4,50.4,30.15,ENE,72,0.0,1.0,72,0.00,,,0.00,meteohub,2013-05-06 23:31:00,
2013-05-06 19:36:00,59.2,50.2,30.15,SW,228,0.0,1.0,72,0.00,,,0.00,meteohub,2013-05-06 23:36:00,
2013-05-06 19:41:00,59.0,50.0,30.15,ENE,63,0.0,1.0,72,0.00,,,0.00,meteohub,2013-05-06 23:41:00,
2013-05-06 19:46:00,58.8,50.2,30.15,ENE,63,0.0,1.0,73,0.00,,,0.00,meteohub,2013-05-06 23:46:00,
2013-05-06 19:51:00,58.6,50.0,30.15,ENE,62,0.0,1.0,73,0.00,,,0.00,meteohub,2013-05-06 23:51:00,
2013-05-06 19:56:00,58.5,49.8,30.15,ENE,62,0.0,1.0,73,0.00,,,0.00,meteohub,2013-05-06 23:56:00,
2013-05-06 20:01:00,58.1,49.8,30.15,ENE,62,0.0,0.0,74,0.00,,,0.00,meteohub,2013-05-07 00:01:00,
2013-05-06 20:06:00,57.7,49.8,30.15,ENE,62,0.0,0.0,75,0.00,,,0.00,meteohub,2013-05-07 00:06:00,
2013-05-06 20:11:00,57.6,49.6,30.15,ENE,62,0.0,0.0,75,0.00,,,0.00,meteohub,2013-05-07 00:11:00,
2013-05-06 20:16:00,57.2,49.6,30.15,ENE,63,0.0,0.0,76,0.00,,,0.00,meteohub,2013-05-07 00:16:00,
2013-05-06 20:21:00,56.8,49.6,30.15,ENE,62,0.0,0.0,77,0.00,,,0.00,meteohub,2013-05-07 00:21:00,
2013-05-06 20:26:00,56.7,49.5,30.15,ENE,62,0.0,0.0,77,0.00,,,0.00,meteohub,2013-05-07 00:26:00,
2013-05-06 20:31:00,56.3,49.5,30.15,ENE,63,0.0,0.0,78,0.00,,,0.00,meteohub,2013-05-07 00:31:00,
2013-05-06 20:36:00,55.9,49.1,30.15,ENE,62,0.0,0.0,78,0.00,,,0.00,meteohub,2013-05-07 00:36:00,
2013-05-06 20:41:00,55.8,49.3,30.16,ENE,62,0.0,0.0,79,0.00,,,0.00,meteohub,2013-05-07 00:41:00,
2013-05-06 20:46:00,55.6,49.5,30.16,ENE,62,0.0,0.0,80,0.00,,,0.00,meteohub,2013-05-07 00:46:00,
2013-05-06 20:51:00,55.2,49.1,30.16,ENE,62,0.0,0.0,80,0.00,,,0.00,meteohub,2013-05-07 00:51:00,
2013-05-06 20:56:00,55.0,49.3,30.16,ENE,63,0.0,0.0,81,0.00,,,0.00,meteohub,2013-05-07 00:56:00,
2013-05-06 21:01:00,54.9,49.1,30.16,ENE,62,0.0,0.0,81,0.00,,,0.00,meteohub,2013-05-07 01:01:00,
2013-05-06 21:06:00,54.7,49.3,30.16,ENE,62,0.0,0.0,82,0.00,,,0.00,meteohub,2013-05-07 01:06:00,
2013-05-06 21:11:00,54.5,49.1,30.16,ENE,62,0.0,0.0,82,0.00,,,0.00,meteohub,2013-05-07 01:11:00,
2013-05-06 21:16:00,54.3,49.3,30.17,ENE,63,0.0,0.0,83,0.00,,,0.00,meteohub,2013-05-07 01:16:00,
2013-05-06 21:21:00,54.1,49.1,30.17,ENE,62,0.0,0.0,83,0.00,,,0.00,meteohub,2013-05-07 01:21:00,
2013-05-06 21:26:00,54.0,49.3,30.17,ENE,62,0.0,0.0,84,0.00,,,0.00,meteohub,2013-05-07 01:26:00,
2013-05-06 21:31:00,53.8,49.1,30.17,ENE,62,0.0,0.0,84,0.00,,,0.00,meteohub,2013-05-07 01:31:00,
2013-05-06 21:36:00,53.6,48.9,30.17,ENE,62,0.0,0.0,84,0.00,,,0.00,meteohub,2013-05-07 01:36:00,
2013-05-06 21:41:00,53.4,49.1,30.17,ENE,62,0.0,0.0,85,0.00,,,0.00,meteohub,2013-05-07 01:41:00,
2013-05-06 21:46:00,53.4,49.1,30.17,ENE,62,0.0,0.0,85,0.00,,,0.00,meteohub,2013-05-07 01:46:00,
2013-05-06 21:51:00,53.2,48.9,30.17,ENE,63,0.0,0.0,85,0.00,,,0.00,meteohub,2013-05-07 01:51:00,
2013-05-06 21:56:00,53.1,48.9,30.17,ENE,63,0.0,0.0,86,0.00,,,0.00,meteohub,2013-05-07 01:56:00,
2013-05-06 22:01:00,53.1,48.9,30.17,ENE,62,0.0,0.0,86,0.00,,,0.00,meteohub,2013-05-07 02:01:00,
2013-05-06 22:06:00,52.9,48.7,30.17,ENE,62,0.0,0.0,86,0.00,,,0.00,meteohub,2013-05-07 02:06:00,
2013-05-06 22:11:00,52.9,48.7,30.17,ENE,63,0.0,0.0,86,0.00,,,0.00,meteohub,2013-05-07 02:11:00,
2013-05-06 22:17:00,52.5,48.4,30.17,ENE,62,0.0,0.0,86,0.00,,,0.00,meteohub,2013-05-07 02:17:00,
2013-05-06 22:22:00,52.5,48.7,30.17,ENE,62,0.0,0.0,87,0.00,,,0.00,meteohub,2013-05-07 02:22:00,
2013-05-06 22:27:00,52.3,48.6,30.17,ENE,63,0.0,0.0,87,0.00,,,0.00,meteohub,2013-05-07 02:27:00,
2013-05-06 22:32:00,52.3,48.6,30.17,ENE,63,0.0,0.0,87,0.00,,,0.00,meteohub,2013-05-07 02:32:00,
2013-05-06 22:37:00,52.2,48.7,30.17,ENE,63,0.0,0.0,88,0.00,,,0.00,meteohub,2013-05-07 02:37:00,
2013-05-06 22:42:00,52.2,48.7,30.16,ENE,62,0.0,0.0,88,0.00,,,0.00,meteohub,2013-05-07 02:42:00,
2013-05-06 22:46:00,52.0,48.6,30.16,ENE,62,0.0,0.0,88,0.00,,,0.00,meteohub,2013-05-07 02:46:00,
2013-05-06 22:51:00,52.0,48.6,30.16,ENE,62,0.0,0.0,88,0.00,,,0.00,meteohub,2013-05-07 02:51:00,
2013-05-06 22:56:00,51.8,48.7,30.16,ENE,62,0.0,0.0,89,0.00,,,0.00,meteohub,2013-05-07 02:56:00,
2013-05-06 23:01:00,51.6,48.6,30.16,ENE,62,0.0,0.0,89,0.00,,,0.00,meteohub,2013-05-07 03:01:00,
2013-05-06 23:06:00,51.6,48.6,30.16,ENE,62,0.0,0.0,89,0.00,,,0.00,meteohub,2013-05-07 03:06:00,
2013-05-06 23:11:00,51.4,48.6,30.16,ENE,62,0.0,0.0,90,0.00,,,0.00,meteohub,2013-05-07 03:11:00,
2013-05-06 23:16:00,51.4,48.6,30.16,ENE,62,0.0,0.0,90,0.00,,,0.00,meteohub,2013-05-07 03:16:00,
2013-05-06 23:21:00,51.3,48.4,30.16,ENE,62,0.0,0.0,90,0.00,,,0.00,meteohub,2013-05-07 03:21:00,
2013-05-06 23:26:00,51.3,48.4,30.16,ENE,62,0.0,0.0,90,0.00,,,0.00,meteohub,2013-05-07 03:26:00,
2013-05-06 23:31:00,51.3,48.4,30.16,ENE,63,0.0,0.0,90,0.00,,,0.00,meteohub,2013-05-07 03:31:00,
2013-05-06 23:36:00,51.1,48.6,30.16,ENE,62,0.0,0.0,91,0.00,,,0.00,meteohub,2013-05-07 03:36:00,
2013-05-06 23:41:00,51.1,48.6,30.16,ENE,62,0.0,0.0,91,0.00,,,0.00,meteohub,2013-05-07 03:41:00,
2013-05-06 23:46:00,50.9,48.4,30.16,ENE,63,0.0,0.0,91,0.00,,,0.00,meteohub,2013-05-07 03:46:00,
2013-05-06 23:51:00,50.7,48.2,30.16,ENE,62,0.0,0.0,91,0.00,,,0.00,meteohub,2013-05-07 03:51:00,
2013-05-06 23:56:00,50.7,48.2,30.16,ENE,62,0.0,0.0,91,0.00,,,0.00,meteohub,2013-05-07 03:56:00,